Flag for U.S.A. Weather past 2 weeks in Chattanooga, Tennessee, U.S.A.

Now
39 °F

Clear.


Feels Like: 39 °F
Forecast: 38 / 54 °F
Wind: No wind

Location: Lovell Field

Current Time: Feb 1, 2015 at 2:51:39 AM

Latest Report: Feb 1, 2015 at 1:53 AM


Visibility: 10 mi

Pressure: 30.23 "Hg

Humidity: 65%

Dew point: 28 °F

Location of ChattanoogaLocation

Historic Weather in Chattanooga — Graph

°F

Chattanooga temperature yesterday

Maximum temperature yesterday: 48 °F (at 4:53 PM)
Minimum temperature yesterday: 28 °F (at 4:53 AM)
Average temperature yesterday: 39 °F

Past Weeks' High & Low Weather Summary

 TemperatureHumidityPressure
High67 °F (Jan 20, 2:53 PM)97% (Jan 23, 12:53 PM)30.43 "Hg (Jan 23, 12:53 PM)
Low26 °F (Jan 17, 7:53 AM)21% (Jan 19, 2:53 PM)29.70 "Hg (Jan 25, 3:53 PM)
Average43 °F62%30.10 "Hg
* Reported Jan 17 12:53 AM — Feb 1 12:53 AM, Chattanooga, Weather by CustomWeather, © 2014

Note: Actual official high and low records may vary slightly from our data, if they occured in-between our weather recording intervals... More about our weather records

Advertising

Chattanooga weather history for previous 24 hours

 ConditionsComfort  
Time TempWeatherWind HumidityBarometerVisibility
12:53 AM
Feb 1
41 °FClear.No wind53%30.24 "Hg10 mi
11:53 PM
Jan 31
40 °FMostly cloudy.No wind58%30.27 "Hg10 mi
10:53 PM40 °FMostly cloudy.3 mph58%30.29 "Hg10 mi
9:53 PM42 °FMostly cloudy.No wind51%30.29 "Hg10 mi
8:53 PM44 °FOvercast.No wind38%30.30 "Hg10 mi
7:53 PM44 °FMostly cloudy.5 mph37%30.31 "Hg10 mi
6:53 PM45 °FMostly cloudy.5 mph37%30.32 "Hg10 mi
5:53 PM46 °FCloudy.5 mph35%30.31 "Hg10 mi
4:53 PM48 °FPartly sunny.5 mph30%30.31 "Hg10 mi
3:53 PM47 °FPartly sunny.5 mph30%30.31 "Hg10 mi
2:53 PM47 °FPartly sunny.5 mph30%30.33 "Hg10 mi
1:53 PM46 °FBroken clouds.6 mph31%30.35 "Hg10 mi
12:53 PM45 °FBroken clouds.6 mph31%30.38 "Hg10 mi
11:53 AM42 °FBroken clouds.6 mph36%30.42 "Hg10 mi
10:53 AM39 °FBroken clouds.3 mph45%30.43 "Hg10 mi
9:53 AM36 °FBroken clouds.9 mph52%30.42 "Hg10 mi
8:53 AM34 °FBroken clouds.5 mph56%30.41 "Hg10 mi
7:53 AM32 °FBroken clouds.5 mph59%30.41 "Hg10 mi
6:53 AM31 °FPassing clouds.8 mph64%30.39 "Hg7 mi
5:53 AM28 °FPassing clouds.No wind72%30.38 "Hg7 mi
4:53 AM28 °FClear.No wind75%30.38 "Hg10 mi
3:53 AM31 °FClear.3 mph64%30.40 "Hg10 mi
2:53 AM31 °FClear.7 mph67%30.41 "Hg10 mi
Weather by CustomWeather, © 2014

See weather overviewHow to use our weather pages